Regional Weather Roundup
Issued by NWS

Home | Current Version | Previous Version | Text Only | Print | Product List | Glossary Off
Versions: 1 2 3 4 5 6 7 8 9 10 11 12 13 14 15 16 17 18 19 20 21 22 23 24 25 26 27 28 29 30 31 32 33 34 35 36 37 38 39 40 41 42 43 44 45 46 47 48 49 50

000
ASUS43 KIND 220609
RWRIN

WEATHER ROUNDUP FOR INDIANA
NATIONAL WEATHER SERVICE INDIANAPOLIS IN
100 AM EST WED FEB 22 2017

NOTE: "FAIR" INDICATES FEW OR NO CLOUDS BELOW 12,000 FEET WITH NO
SIGNIFICANT WEATHER AND/OR OBSTRUCTIONS TO VISIBILITY.

* - STATION DOES NOT REPORT WEATHER SUCH AS PRECIPITATION OR FOG.

+ - STATION NOT QUALITY CONTROLLED BY THE NATIONAL WEATHER SERVICE.
    USE DATA WITH CAUTION...ESPECIALLY DEWPOINT AND RELATIVE
    HUMIDITY OBSERVATIONS.

INZ001>003-010>013-019-020-220700-
NORTHWEST INDIANA

CITY           SKY/WX    TMP DP  RH WIND       PRES   REMARKS
GARY /AIRPORT/ FOG       50  49  95 CALM      29.87S VSB 3/4
KNOX *+        CLOUDY    50  34  53 S7        29.87S
LA PORTE +     CLOUDY    46  46  98 CALM      29.87F FOG
6HR MIN TEMP:  45; 6HR MAX TEMP:  54;

MICHIGAN CITY+ CLEAR     52  52 100 CALM      29.87S
MONTICELLO +   CLOUDY    54  50  85 S6        29.88F
6HR MIN TEMP:  53; 6HR MAX TEMP:  58;

RENSSELAER +   PTCLDY    54  50  87 S8        29.87F
VALPARAISO     CLOUDY    52  50  93 CALM      29.87F FOG
6HR MIN TEMP:  52; 6HR MAX TEMP:  60;


$$

LMZ046-743>745-220700-
SOUTHERN LAKE MICHIGAN

STATION/POSITION TIME  TEMP    WIND        PRES    WAVE
                       AIR SEA DIR/SP/G            HT
                 (UTC) (F)     (DEG/KT/KT) (MB)    (FT)
BURNS HARBOR     0540   53     190/  7/  9 1011.9S
MICHIGAN CITY    0540   55     150/ 12/ 14   N/A

$$

INZ004-005-014>016-021>024-220700-
NORTH CENTRAL INDIANA

CITY           SKY/WX    TMP DP  RH WIND       PRES   REMARKS
GOSHEN         PTCLDY    50  45  83 S7        29.87F
6HR MIN TEMP:  48; 6HR MAX TEMP:  54;

LOGANSPORT +   CLOUDY    52  50  93 S9        29.90F
PERU/GRISSOM   CLOUDY    55  55 100 S9        29.89F
6HR MIN TEMP:  50; 6HR MAX TEMP:  57;

ROCHESTER +    MOCLDY    55  50  82 S7        29.88F
SOUTH BEND     FOG       44  44 100 CALM      29.87F VSB 1
6HR MIN TEMP:  43; 6HR MAX TEMP:  55;

WARSAW +       MOCLDY    52  46  82 S3        29.88F

$$

INZ006>009-017-018-025>027-220700-
NORTHEAST INDIANA

CITY           SKY/WX    TMP DP  RH WIND       PRES   REMARKS
ANGOLA *+      CLEAR     45  45 100 CALM      29.88F
AUBURN +       PTCLDY    50  46  87 S3        29.90F
FORT WAYNE     CLOUDY    54  49  83 S8        29.91F
6HR MIN TEMP:  49; 6HR MAX TEMP:  55;

HUNTINGTON +   MOCLDY    54  52  94 S3        29.91F
6HR MIN TEMP:  47; 6HR MAX TEMP:  55;

KENDALLVILLE + CLOUDY    51  47  88 S7        29.89F

$$

INZ028-029-035-036-043>045-051>053-220700-
WEST CENTRAL INDIANA

CITY           SKY/WX    TMP DP  RH WIND       PRES   REMARKS
GREENCASTLE +  PTCLDY    52  52 100 S6        29.90F
LAFAYETTE      MOCLDY    55  51  86 S7        29.89F
6HR MIN TEMP:  52; 6HR MAX TEMP:  57;

TERRE HAUTE    FOG       50  49  96 CALM      29.89F VSB 1/4
6HR MIN TEMP:  50; 6HR MAX TEMP:  58;


$$

INZ030>032-037>040-046>048-054>057-064-065-220700-
CENTRAL INDIANA

CITY           SKY/WX    TMP DP  RH WIND       PRES   REMARKS
CP ATTERBURY + CLOUDY    54  54 100 CALM      29.93F
FRANKFORT +    CLOUDY    54  52  91 S5        29.92F
6HR MIN TEMP:  52; 6HR MAX TEMP:  59;

GREENWOOD *+   CLOUDY    56  55  97 SE5       29.93F
6HR MIN TEMP:  55; 6HR MAX TEMP:  59;

INDIANAPOLIS   CLOUDY    55  53  93 SE7       29.90F
6HR MIN TEMP:  55; 6HR MAX TEMP:  60;

-EAGLE CREEK   PTCLDY    56  52  86 CALM      29.90F
6HR MIN TEMP:  56; 6HR MAX TEMP:  62;

KOKOMO +       CLOUDY    52  50  93 S7        29.92F
6HR MIN TEMP:  50; 6HR MAX TEMP:  56;

MARION +       CLOUDY    51  50  94 S3        29.93F
MT COMFORT *+  CLOUDY    54  52  94 S7        29.92F
SHELBYVILLE    CLOUDY    56  52  86 SE7       29.92F FOG
6HR MIN TEMP:  56; 6HR MAX TEMP:  59; 6HR PCP:  0.02;

ZIONSVILLE +   CLOUDY    54  52  94 S5        29.91F
6HR MIN TEMP:  53; 6HR MAX TEMP:  59;


$$

INZ033-034-041-042-049-050-058-059-220700-
EAST CENTRAL INDIANA

CITY           SKY/WX    TMP DP  RH WIND       PRES   REMARKS
MUNCIE         CLOUDY    58  53  84 S8        29.92F
6HR MIN TEMP:  56; 6HR MAX TEMP:  62;


$$

INZ060-061-067>069-081>083-085>088-220700-
SOUTHWEST INDIANA

CITY           SKY/WX    TMP DP  RH WIND       PRES   REMARKS
EVANSVILLE     CLOUDY    60  54  80 SE3       29.91S
6HR MIN TEMP:  59; 6HR MAX TEMP:  63;

HUNTINGBURG *+ CLOUDY    59  54  82 S8        29.91S
6HR MIN TEMP:  59; 6HR MAX TEMP:  63;

WASHINGTON +   CLOUDY    52  51  93 S3        29.90S FOG
                                      6HR PCP:  0.09;


$$

INZ062-063-066-070>080-084-089>092-220700-
SOUTH CENTRAL AND SOUTHEAST INDIANA

CITY           SKY/WX    TMP DP  RH WIND       PRES   REMARKS
BLOOMINGTON    CLOUDY    55  53  93 SE6       29.91F FOG
6HR MIN TEMP:  54; 6HR MAX TEMP:  56; 6HR PCP:  0.01;

MADISON *+     CLOUDY    55  54  94 SE6       29.94F
SEYMOUR +      CLOUDY    57  57 100 CALM      29.93F FOG

$$





USA.gov is the U.S. government's official web portal to all federal, state and local government web resources and services.